Weather History for Duluth Sky Harbor, MN

Change the Weather History Date:

Wednesday, September 3, 2014

  Actual Average Record
Temperature  
Mean Temperature 68 °F -  
Max Temperature 77 °F 69 °F 90 °F (1948)
Min Temperature 59 °F 52 °F 33 °F (1974)
Cooling Degree Days 3    
Growing Degree Days 18 (Base 50)    
Moisture  
Dew Point 59 °F    
Average Humidity 77    
Maximum Humidity 94    
Minimum Humidity 57    
Precipitation  
Precipitation 0.00 in - - ()
Sea Level Pressure  
Sea Level Pressure 29.80 in    
Wind  
Wind Speed 6 mph (SSW)    
Max Wind Speed 22 mph    
Max Gust Speed 25 mph    
Visibility 10 miles    
Events Rain , Thunderstorm    
Averages and records for this station are not official NWS values.
T = Trace of Precipitation, MM = Missing Value Source: NWS Daily Summary

Daily Weather History Graph

Daily Weather History Graph

Search for Another Location

Airport:

Trip Planner

Search our weather history database for the weather conditions in past years. The results will help you decide how hot, cold, wet, or windy it might be!

Date:

Astronomy

Sep. 03, 2014 Rise Set
Actual Time 6:30 AM CDT 7:43 PM CDT
Civil Twilight 5:59 AM CDT 8:14 PM CDT
Nautical Twilight 5:21 AM CDT 8:52 PM CDT
Astronomical Twilight 4:41 AM CDT 9:31 PM CDT
Moon 3:37 PM CDT (9/3) 12:13 AM CDT (9/3)
Length of Visible Light 14h 15m
Length of Day
13h 12m
Waxing Gibbous, 64% of the Moon is Illuminated
Sep 3
Waxing Gibbous
Sep 8
Full
Sep 15
Last Quarter
Sep 24
New
Oct 1
First Quarter

Hourly Weather History & Observations

Time (CDT) Temp. Dew Point Humidity Pressure Visibility Wind Dir Wind Speed Gust Speed Precip Events Conditions
12:13 AM 62.6 °F 57.2 °F 82% 29.82 in 10.0 mi Calm Calm - N/A   Scattered Clouds
12:34 AM 62.6 °F 57.2 °F 82% 29.82 in 10.0 mi Calm Calm - N/A   Scattered Clouds
12:53 AM 62.6 °F 59.0 °F 88% 29.80 in 10.0 mi SSW 13.8 mph - N/A Rain Light Rain
1:13 AM 64.4 °F 57.2 °F 77% 29.81 in 10.0 mi WNW 4.6 mph - N/A   Scattered Clouds
1:33 AM 62.6 °F 57.2 °F 82% 29.83 in 10.0 mi Calm Calm - N/A   Scattered Clouds
1:53 AM 62.6 °F 57.2 °F 82% 29.84 in 10.0 mi East 3.5 mph - N/A   Scattered Clouds
2:14 AM 62.6 °F 59.0 °F 88% 29.84 in 10.0 mi ESE 4.6 mph - N/A   Clear
2:33 AM 62.6 °F 57.2 °F 82% 29.84 in 10.0 mi SSE 3.5 mph - N/A   Clear
2:54 AM 60.8 °F 57.2 °F 88% 29.83 in 10.0 mi South 4.6 mph - N/A   Clear
3:13 AM 60.8 °F 57.2 °F 88% 29.83 in 10.0 mi South 4.6 mph - N/A   Clear
3:33 AM 62.6 °F 57.2 °F 82% 29.83 in 10.0 mi South 9.2 mph - N/A   Clear
3:54 AM 60.8 °F 57.2 °F 88% 29.83 in 10.0 mi SSW 8.1 mph - N/A   Mostly Cloudy
4:13 AM 60.8 °F 55.4 °F 82% 29.83 in 10.0 mi SSW 5.8 mph - N/A   Mostly Cloudy
4:33 AM 60.8 °F 55.4 °F 82% 29.83 in 10.0 mi SSW 3.5 mph - N/A   Scattered Clouds
4:54 AM 60.8 °F 57.2 °F 88% 29.82 in 10.0 mi Calm Calm - N/A   Scattered Clouds
5:13 AM 60.8 °F 55.4 °F 82% 29.82 in 10.0 mi Calm Calm - N/A   Scattered Clouds
5:33 AM 60.8 °F 55.4 °F 82% 29.82 in 10.0 mi Calm Calm - N/A   Scattered Clouds
5:54 AM 59.0 °F 55.4 °F 88% 29.83 in 10.0 mi West 4.6 mph - N/A   Clear
6:13 AM 59.0 °F 55.4 °F 88% 29.83 in 10.0 mi WSW 3.5 mph - N/A   Mostly Cloudy
6:33 AM 59.0 °F 55.4 °F 88% 29.83 in 10.0 mi SSW 3.5 mph - N/A   Mostly Cloudy
6:54 AM 59.0 °F 55.4 °F 88% 29.84 in 10.0 mi SW 4.6 mph - N/A   Scattered Clouds
7:13 AM 60.8 °F 55.4 °F 82% 29.84 in 10.0 mi WSW 5.8 mph - N/A   Scattered Clouds
7:33 AM 60.8 °F 57.2 °F 88% 29.85 in 10.0 mi SW 5.8 mph - N/A   Mostly Cloudy
7:53 AM 60.8 °F 57.2 °F 88% 29.85 in 10.0 mi WSW 4.6 mph - N/A   Scattered Clouds
8:13 AM 62.6 °F 57.2 °F 82% 29.85 in 10.0 mi SW 8.1 mph - N/A   Clear
8:34 AM 62.6 °F 57.2 °F 82% 29.85 in 10.0 mi SW 8.1 mph - N/A   Mostly Cloudy
8:53 AM 64.4 °F 57.2 °F 77% 29.85 in 10.0 mi WSW 6.9 mph - N/A   Mostly Cloudy
9:14 AM 64.4 °F 59.0 °F 83% 29.83 in 10.0 mi SW 3.5 mph - N/A   Scattered Clouds
9:33 AM 66.2 °F 60.8 °F 83% 29.82 in 10.0 mi SSW 6.9 mph - N/A   Clear
9:54 AM 69.8 °F 60.8 °F 73% 29.82 in 10.0 mi SW 6.9 mph - N/A   Clear
10:13 AM 71.6 °F 62.6 °F 73% 29.82 in 10.0 mi WSW 9.2 mph - N/A   Clear
10:33 AM 73.4 °F 60.8 °F 65% 29.82 in 10.0 mi WSW 11.5 mph - N/A   Clear
10:54 AM 73.4 °F 60.8 °F 65% 29.82 in 10.0 mi SW 17.3 mph - N/A   Clear
11:13 AM 73.4 °F 60.8 °F 65% 29.82 in 10.0 mi SW 17.3 mph 23.0 mph N/A   Clear
11:33 AM 75.2 °F 60.8 °F 61% 29.81 in 10.0 mi SW 19.6 mph - N/A   Clear
11:54 AM 75.2 °F 60.8 °F 61% 29.80 in 10.0 mi SSW 18.4 mph 25.3 mph N/A   Clear
12:13 PM 75.2 °F 62.6 °F 65% 29.79 in 10.0 mi SW 19.6 mph 24.2 mph N/A   Clear
12:34 PM 75.2 °F 60.8 °F 61% 29.79 in 10.0 mi SSW 17.3 mph - N/A   Scattered Clouds
12:53 PM 77.0 °F 60.8 °F 57% 29.80 in 10.0 mi SSW 19.6 mph 25.3 mph N/A   Scattered Clouds
1:13 PM 77.0 °F 62.6 °F 61% 29.81 in 10.0 mi SW 21.9 mph 25.3 mph N/A   Scattered Clouds
1:34 PM 77.0 °F 62.6 °F 61% 29.81 in 10.0 mi SSW 18.4 mph 25.3 mph N/A   Scattered Clouds
1:53 PM 77.0 °F 60.8 °F 57% 29.80 in 10.0 mi SW 17.3 mph 23.0 mph N/A   Scattered Clouds
2:13 PM 75.2 °F 60.8 °F 61% 29.80 in 10.0 mi SW 13.8 mph - N/A   Scattered Clouds
2:34 PM 75.2 °F 59.0 °F 57% 29.80 in 10.0 mi SSW 16.1 mph - N/A   Clear
2:53 PM 73.4 °F 57.2 °F 57% 29.79 in 10.0 mi SSW 10.4 mph - N/A   Clear
3:13 PM 73.4 °F 59.0 °F 61% 29.80 in 10.0 mi SSW 9.2 mph - N/A Thunderstorm Scattered Clouds
3:34 PM 73.4 °F 57.2 °F 57% 29.80 in 10.0 mi SSW 13.8 mph - N/A   Clear
3:53 PM 71.6 °F 59.0 °F 64% 29.80 in 10.0 mi SSW 13.8 mph - N/A   Scattered Clouds
4:14 PM 71.6 °F 57.2 °F 60% 29.79 in 10.0 mi SSW 13.8 mph - N/A Thunderstorm Scattered Clouds
4:33 PM 71.6 °F 57.2 °F 60% 29.78 in 10.0 mi SSW 9.2 mph - N/A   Clear
4:53 PM 71.6 °F 59.0 °F 64% 29.77 in 10.0 mi South 12.7 mph 16.1 mph N/A   Clear
5:14 PM 69.8 °F 57.2 °F 64% 29.77 in 10.0 mi SSW 11.5 mph 17.3 mph N/A Thunderstorm Clear
5:33 PM 69.8 °F 57.2 °F 64% 29.76 in 10.0 mi SSW 3.5 mph - N/A   Clear
5:53 PM 68.0 °F 59.0 °F 73% 29.77 in 10.0 mi North 5.8 mph - N/A   Clear
6:14 PM 68.0 °F 57.2 °F 68% 29.78 in 10.0 mi SSW 4.6 mph - N/A Thunderstorm Clear
6:33 PM 66.2 °F 59.0 °F 78% 29.77 in 10.0 mi Calm Calm - N/A Thunderstorm Clear
6:53 PM 66.2 °F 57.2 °F 73% 29.75 in 10.0 mi ESE 4.6 mph - N/A   Clear
7:14 PM 66.2 °F 60.8 °F 83% 29.74 in 10.0 mi ESE 3.5 mph - N/A   Clear
7:33 PM 66.2 °F 59.0 °F 78% 29.75 in 10.0 mi ESE 3.5 mph - N/A   Clear
7:53 PM 64.4 °F 59.0 °F 83% 29.75 in 10.0 mi Calm Calm - N/A Rain , Thunderstorm Light Thunderstorms and Rain
8:14 PM 64.4 °F 60.8 °F 88% 29.74 in 10.0 mi ENE 11.5 mph - N/A   Scattered Clouds
8:33 PM 64.4 °F 60.8 °F 88% 29.76 in 10.0 mi ESE 3.5 mph - N/A   Scattered Clouds
8:53 PM 64.4 °F 60.8 °F 88% 29.76 in 10.0 mi East 4.6 mph - N/A   Scattered Clouds
9:13 PM 64.4 °F 60.8 °F 88% 29.76 in 10.0 mi East 3.5 mph - N/A   Clear
9:34 PM 64.4 °F 60.8 °F 88% 29.77 in 10.0 mi East 3.5 mph - N/A   Clear
9:53 PM 64.4 °F 60.8 °F 88% 29.77 in 10.0 mi Calm Calm - N/A   Clear
10:13 PM 64.4 °F 60.8 °F 88% 29.77 in 10.0 mi NE 3.5 mph - N/A   Clear
10:53 PM 64.4 °F 60.8 °F 88% 29.78 in 10.0 mi NNE 4.6 mph - N/A   Clear
11:13 PM 64.4 °F 60.8 °F 88% 29.79 in 10.0 mi Calm Calm - N/A   Clear
11:34 PM 62.6 °F 60.8 °F 94% 29.79 in 10.0 mi Calm Calm - N/A   Scattered Clouds
11:53 PM 62.6 °F 60.8 °F 94% 29.78 in 10.0 mi Calm Calm - N/A   Scattered Clouds